Location: Caltech
(34.1382°N, 118.1253°W)
Time: 19:07:40
(UTC-07:00)

AO-7 - Visible Passes

Search period start: 28 May 2015 00:00
Search period end: 07 June 2015 00:00
Orbit: 1440 x 1459 km, 101.5° (Epoch: 27 May)

Date Brightness Start Highest point End Pass type
(mag) Time Alt. Az. Time Alt. Az. Time Alt. Az.
28 May ? 04:05:18 10° NE 04:12:35 34° E 04:20:02 10° SSE visible
29 May ? 03:10:19 10° ENE 03:11:35 11° E 03:13:46 10° ESE visible
29 May ? 04:57:28 10° NNE 05:05:52 75° ESE 05:14:14 10° S visible
30 May ? 03:58:34 10° NE 04:05:34 30° E 04:12:46 10° SSE visible
31 May ? 04:50:34 10° NNE 04:58:54 69° ESE 05:07:15 10° S visible
01 Jun ? 03:51:53 10° NE 03:58:32 27° E 04:05:27 10° SSE visible
02 Jun ? 04:43:41 10° NNE 04:51:57 62° ESE 05:00:13 10° S visible
03 Jun ? 03:45:15 10° NE 03:51:30 24° E 03:58:05 10° SSE visible
04 Jun ? 04:36:49 10° NNE 04:44:59 56° ESE 04:53:11 10° S visible
05 Jun ? 03:38:39 10° NE 03:44:26 21° E 03:50:38 10° SE visible
06 Jun ? 04:29:58 10° NNE 04:38:01 50° E 04:46:06 10° S visible
